When you browse on this site, cookies collect data to enhance your experience and personalize the content and advertising you see.
Visit our Privacy Policy to learn more. By continuing to use the site, you agree to this use of cookies and data.
  • In Latvia
  • List of Countries
  • For 7 days
  • Water Temperature
  • Weather Map
  • Weather Widgets
  • user-avatar
    Login

    Hourly Weather San Miguel de Tucumán

    Today, 6 June, Saturday

    Time Temperature Precipitation Wind Pressure Humidity
    00:00 +11°C° 0 mm 1 mps 722 mmHg 62%
    01:00 +11°C° 0 mm 1 mps 722 mmHg 62%
    02:00 +10°C° 0 mm 1 mps 721 mmHg 61%
    03:00 +10°C° 0 mm 1 mps 721 mmHg 60%
    04:00 +10°C° 0 mm 1 mps 720 mmHg 58%
    05:00 +10°C° 0 mm 1 mps 720 mmHg 57%
    06:00 +10°C° 0 mm 1 mps 720 mmHg 56%
    07:00 +11°C° 0 mm 1 mps 721 mmHg 54%
    08:00 +11°C° 0 mm 1 mps 721 mmHg 53%
    09:00 +14°C° 0 mm 1 mps 721 mmHg 47%
    10:00 +18°C° 0 mm 1 mps 721 mmHg 42%
    11:00 +21°C° 0 mm 1 mps 721 mmHg 36%
    12:00 +22°C° 0 mm 1 mps 720 mmHg 35%
    13:00 +23°C° 0 mm 1 mps 720 mmHg 34%
    14:00 +24°C° 0 mm 2 mps 719 mmHg 32%
    15:00 +23°C° 0 mm 1 mps 719 mmHg 38%
    16:00 +21°C° 0 mm 1 mps 719 mmHg 43%
    17:00 +20°C° 0 mm 1 mps 718 mmHg 48%
    18:00 +18°C° 0 mm 1 mps 718 mmHg 51%
    19:00 +16°C° 0 mm 1 mps 719 mmHg 54%
    20:00 +14°C° 0 mm 1 mps 719 mmHg 57%
    21:00 +14°C° 0 mm 1 mps 719 mmHg 56%
    22:00 +13°C° 0 mm 1 mps 719 mmHg 56%
    23:00 +13°C° 0 mm 1 mps 719 mmHg 56%

    Tomorrow, 7 June, Sunday

    Time Temperature Precipitation Wind Pressure Humidity
    00:00 +13°C° 0 mm 1 mps 718 mmHg 56%
    01:00 +12°C° 0 mm 1 mps 718 mmHg 56%
    02:00 +12°C° 0 mm 1 mps 718 mmHg 56%
    03:00 +12°C° 0 mm 1 mps 718 mmHg 56%
    04:00 +12°C° 0 mm 1 mps 718 mmHg 56%
    05:00 +11°C° 0 mm 1 mps 718 mmHg 57%
    06:00 +12°C° 0 mm 1 mps 718 mmHg 56%
    07:00 +12°C° 0 mm 1 mps 719 mmHg 56%
    08:00 +12°C° 0 mm 1 mps 719 mmHg 56%
    09:00 +15°C° 0 mm 1 mps 720 mmHg 50%
    10:00 +19°C° 0 mm 1 mps 720 mmHg 44%
    11:00 +21°C° 0 mm 1 mps 720 mmHg 38%
    12:00 +22°C° 0 mm 1 mps 720 mmHg 38%
    13:00 +23°C° 0 mm 1 mps 719 mmHg 37%
    14:00 +23°C° 0 mm 1 mps 719 mmHg 37%
    15:00 +22°C° 0 mm 1 mps 718 mmHg 43%
    16:00 +21°C° 0 mm 1 mps 718 mmHg 49%
    17:00 +19°C° 0 mm 1 mps 718 mmHg 54%
    18:00 +18°C° 0 mm 1 mps 718 mmHg 58%
    19:00 +16°C° 0 mm 1 mps 719 mmHg 61%
    20:00 +14°C° 0 mm 1 mps 719 mmHg 64%
    21:00 +14°C° 0 mm 1 mps 719 mmHg 65%
    22:00 +14°C° 0 mm 1 mps 719 mmHg 66%
    23:00 +13°C° 0 mm 1 mps 719 mmHg 67%

    Day after tomorrow, 8 June, Monday

    Time Temperature Precipitation Wind Pressure Humidity
    00:00 +13°C° 0 mm 1 mps 719 mmHg 68%
    01:00 +13°C° 0 mm 1 mps 719 mmHg 69%
    02:00 +12°C° 0 mm 1 mps 718 mmHg 70%
    03:00 +12°C° 0 mm 1 mps 718 mmHg 70%
    04:00 +12°C° 0 mm 1 mps 718 mmHg 71%
    05:00 +12°C° 0 mm 1 mps 718 mmHg 71%
    06:00 +13°C° 0 mm 1 mps 719 mmHg 69%
    07:00 +13°C° 0 mm 1 mps 719 mmHg 67%
    08:00 +14°C° 0 mm 1 mps 720 mmHg 65%
    09:00 +16°C° 0 mm 1 mps 720 mmHg 59%
    10:00 +20°C° 0 mm 1 mps 720 mmHg 52%
    11:00 +23°C° 0 mm 1 mps 720 mmHg 46%
    12:00 +23°C° 0 mm 1 mps 720 mmHg 44%
    13:00 +24°C° 0 mm 1 mps 719 mmHg 43%
    14:00 +25°C° 0 mm 1 mps 718 mmHg 42%
    15:00 +24°C° 0 mm 1 mps 718 mmHg 48%
    16:00 +22°C° 0 mm 1 mps 718 mmHg 53%
    17:00 +21°C° 0 mm 1 mps 718 mmHg 59%
    18:00 +19°C° 0 mm 1 mps 718 mmHg 64%
    19:00 +18°C° 0 mm 1 mps 718 mmHg 68%
    20:00 +16°C° 0 mm 1 mps 719 mmHg 73%
    21:00 +15°C° 0 mm 1 mps 719 mmHg 74%
    22:00 +15°C° 0 mm 1 mps 719 mmHg 75%
    23:00 +15°C° 0 mm 1 mps 720 mmHg 76%

    9 June, Tuesday

    Time Temperature Precipitation Wind Pressure Humidity
    00:00 +15°C° 0 mm 1 mps 719 mmHg 77%
    01:00 +14°C° 0 mm 1 mps 719 mmHg 77%
    02:00 +14°C° 0 mm 1 mps 719 mmHg 78%
    03:00 +14°C° 0 mm 1 mps 719 mmHg 79%
    04:00 +13°C° 0 mm 1 mps 718 mmHg 80%
    05:00 +13°C° 0 mm 1 mps 718 mmHg 82%
    06:00 +14°C° 0 mm 1 mps 719 mmHg 80%
    07:00 +14°C° 0 mm 1 mps 719 mmHg 78%
    08:00 +15°C° 0 mm 1 mps 719 mmHg 76%
    09:00 +18°C° 0 mm 1 mps 719 mmHg 70%
    10:00 +20°C° 0 mm 1 mps 719 mmHg 63%
    11:00 +22°C° 0 mm 1 mps 719 mmHg 57%
    12:00 +23°C° 0 mm 1 mps 719 mmHg 56%
    13:00 +23°C° 0 mm 1 mps 718 mmHg 55%
    14:00 +24°C° 0 mm 1 mps 717 mmHg 55%
    15:00 +23°C° 0 mm 1 mps 717 mmHg 60%
    16:00 +22°C° 0 mm 1 mps 717 mmHg 64%
    17:00 +21°C° 0 mm 1 mps 717 mmHg 69%
    18:00 +20°C° 0 mm 1 mps 717 mmHg 74%
    19:00 +19°C° 0 mm 1 mps 717 mmHg 78%
    20:00 +19°C° 0 mm 1 mps 718 mmHg 82%
    21:00 +16°C° 0 mm 0 mps 718 mmHg 84%
    22:00 +16°C° 0 mm 0 mps 718 mmHg 86%
    23:00 +16°C° 0 mm 0 mps 718 mmHg 88%

    10 June, Wednesday

    Time Temperature Precipitation Wind Pressure Humidity
    00:00 +16°C° 0.1 mm 0 mps 718 mmHg 90%
    01:00 +16°C° 0.1 mm 0 mps 718 mmHg 91%
    02:00 +16°C° 0.1 mm 0 mps 718 mmHg 93%
    03:00 +15°C° 0 mm 0 mps 718 mmHg 93%
    04:00 +15°C° 0 mm 0 mps 717 mmHg 94%
    05:00 +15°C° 0 mm 0 mps 717 mmHg 95%
    06:00 +15°C° 0 mm 0 mps 718 mmHg 94%
    07:00 +15°C° 0 mm 0 mps 718 mmHg 94%
    08:00 +16°C° 0 mm 0 mps 719 mmHg 93%
    09:00 +18°C° 0 mm 1 mps 719 mmHg 89%
    10:00 +19°C° 0 mm 1 mps 719 mmHg 86%
    11:00 +20°C° 0 mm 1 mps 719 mmHg 82%
    12:00 +19°C° 0 mm 2 mps 718 mmHg 82%
    13:00 +19°C° 0 mm 2 mps 717 mmHg 81%
    14:00 +19°C° 0 mm 2 mps 716 mmHg 80%
    15:00 +20°C° 0 mm 1 mps 716 mmHg 81%
    16:00 +20°C° 0 mm 1 mps 716 mmHg 82%
    17:00 +20°C° 0 mm 1 mps 716 mmHg 82%
    18:00 +19°C° 0 mm 1 mps 717 mmHg 84%
    19:00 +17°C° 0 mm 0 mps 717 mmHg 85%
    20:00 +16°C° 0 mm 0 mps 717 mmHg 87%
    21:00 +16°C° 0 mm 0 mps 717 mmHg 87%
    22:00 +16°C° 0 mm 0 mps 717 mmHg 88%
    23:00 +16°C° 0 mm 0 mps 717 mmHg 88%

    11 June, Thursday

    Time Temperature Precipitation Wind Pressure Humidity
    00:00 +18°C° 0 mm 1 mps 717 mmHg 88%
    01:00 +16°C° 0 mm 1 mps 716 mmHg 89%
    02:00 +16°C° 0 mm 1 mps 716 mmHg 89%
    03:00 +16°C° 0 mm 1 mps 715 mmHg 90%
    04:00 +16°C° 0 mm 1 mps 715 mmHg 92%
    05:00 +15°C° 0 mm 1 mps 714 mmHg 93%
    06:00 +16°C° 0 mm 1 mps 714 mmHg 92%
    07:00 +16°C° 0 mm 1 mps 714 mmHg 90%
    08:00 +16°C° 0 mm 1 mps 714 mmHg 89%
    09:00 +19°C° 0 mm 1 mps 714 mmHg 81%
    10:00 +21°C° 0 mm 1 mps 713 mmHg 74%
    11:00 +23°C° 0 mm 1 mps 713 mmHg 66%
    12:00 +23°C° 0 mm 2 mps 713 mmHg 64%
    13:00 +24°C° 0 mm 2 mps 712 mmHg 62%
    14:00 +24°C° 0 mm 2 mps 712 mmHg 60%
    15:00 +24°C° 0 mm 2 mps 712 mmHg 62%
    16:00 +23°C° 0 mm 1 mps 712 mmHg 65%
    17:00 +22°C° 0 mm 1 mps 712 mmHg 68%
    18:00 +21°C° 0 mm 1 mps 713 mmHg 74%
    19:00 +19°C° 0 mm 1 mps 714 mmHg 80%
    20:00 +18°C° 0 mm 1 mps 714 mmHg 87%
    21:00 +15°C° 0 mm 0 mps 714 mmHg 88%
    22:00 +15°C° 0 mm 0 mps 714 mmHg 88%
    23:00 +15°C° 0 mm 0 mps 715 mmHg 89%
    Show more